Location: Ar Ranvel
(48.3000°N, 4.8833°W)
Time: 05:44:57
(UTC+00:00)

FALCON 9 DEB - Pass Details

Date: 27 October 2021
Orbit: 417 x 427 km, 53.0° (Epoch: 30 November)

Event Time Altitude Azimuth Distance (km) Brightness Sun altitude
Rises 19:12:57 0° 236° (SW) 2,390 7.7 -21.2°
Reaches altitude 10° 19:15:03 10° 235° (SW) 1,526 6.5 -21.6°
Enters shadow 19:17:42 49° 218° (SW) 561 3.8 -22.0°
